• In Spain
  • List of Countries
  • For 7 days
  • Water Temperature
  • Satellite Maps
  • Weather Map
  • Weather Widgets
  • user-avatar
    Login

    Hourly Weather Adelaide

    Today, 23 July, Monday

    Time Temperature Precipitation Wind Pressure Humidity
    00:00 +15°C° 0 mm 7 mps 752 mmHg 40%
    01:00 +15°C° 0 mm 7 mps 752 mmHg 41%
    02:00 +14°C° 0 mm 6 mps 752 mmHg 43%
    03:00 +14°C° 0 mm 6 mps 751 mmHg 44%
    04:00 +14°C° 0 mm 5 mps 751 mmHg 44%
    05:00 +14°C° 0 mm 5 mps 750 mmHg 44%
    06:00 +13°C° 0 mm 5 mps 750 mmHg 44%
    07:00 +14°C° 0.1 mm 6 mps 749 mmHg 43%
    08:00 +15°C° 0.1 mm 7 mps 749 mmHg 42%
    09:00 +16°C° 0.1 mm 8 mps 749 mmHg 41%
    10:00 +16°C° 0.5 mm 9 mps 749 mmHg 50%
    11:00 +16°C° 0.5 mm 9 mps 748 mmHg 60%
    12:00 +14°C° 0.5 mm 10 mps 748 mmHg 69%
    13:00 +14°C° 1.1 mm 10 mps 748 mmHg 72%
    14:00 +14°C° 1.1 mm 10 mps 748 mmHg 75%
    15:00 +14°C° 1.1 mm 10 mps 748 mmHg 78%
    16:00 +14°C° 0.2 mm 10 mps 749 mmHg 77%
    17:00 +13°C° 0.2 mm 10 mps 750 mmHg 76%
    18:00 +13°C° 0.2 mm 10 mps 750 mmHg 74%
    19:00 +13°C° 0 mm 9 mps 751 mmHg 72%
    20:00 +12°C° 0 mm 9 mps 752 mmHg 70%
    21:00 +12°C° 0 mm 8 mps 753 mmHg 68%
    22:00 +12°C° 0 mm 8 mps 753 mmHg 69%
    23:00 +12°C° 0 mm 8 mps 753 mmHg 70%

    Tomorrow, 24 July, Tuesday

    Time Temperature Precipitation Wind Pressure Humidity
    00:00 +12°C° 0 mm 7 mps 754 mmHg 70%
    01:00 +12°C° 0 mm 7 mps 754 mmHg 71%
    02:00 +12°C° 0 mm 7 mps 754 mmHg 71%
    03:00 +12°C° 0 mm 7 mps 754 mmHg 72%
    04:00 +12°C° 0 mm 8 mps 754 mmHg 73%
    05:00 +12°C° 0 mm 8 mps 754 mmHg 74%
    06:00 +12°C° 0 mm 8 mps 754 mmHg 75%
    07:00 +12°C° 0.1 mm 8 mps 755 mmHg 75%
    08:00 +13°C° 0.1 mm 9 mps 755 mmHg 75%
    09:00 +15°C° 0.1 mm 9 mps 755 mmHg 75%
    10:00 +15°C° 0.1 mm 9 mps 755 mmHg 72%
    11:00 +16°C° 0.1 mm 9 mps 755 mmHg 70%
    12:00 +16°C° 0.1 mm 9 mps 755 mmHg 67%
    13:00 +16°C° 0.2 mm 9 mps 755 mmHg 68%
    14:00 +16°C° 0.2 mm 8 mps 756 mmHg 69%
    15:00 +16°C° 0.2 mm 8 mps 756 mmHg 70%
    16:00 +15°C° 0.4 mm 7 mps 756 mmHg 74%
    17:00 +15°C° 0.4 mm 6 mps 757 mmHg 78%
    18:00 +14°C° 0.4 mm 5 mps 757 mmHg 83%
    19:00 +14°C° 0.3 mm 5 mps 757 mmHg 83%
    20:00 +13°C° 0.3 mm 4 mps 758 mmHg 84%
    21:00 +13°C° 0.3 mm 3 mps 758 mmHg 84%
    22:00 +13°C° 0.1 mm 3 mps 758 mmHg 83%
    23:00 +13°C° 0.1 mm 3 mps 758 mmHg 83%

    Day after tomorrow, 25 July, Wednesday

    Time Temperature Precipitation Wind Pressure Humidity
    00:00 +13°C° 0.1 mm 3 mps 758 mmHg 82%
    01:00 +13°C° 0 mm 3 mps 758 mmHg 83%
    02:00 +12°C° 0 mm 3 mps 758 mmHg 84%
    03:00 +12°C° 0 mm 3 mps 758 mmHg 84%
    04:00 +13°C° 0 mm 2 mps 759 mmHg 84%
    05:00 +13°C° 0 mm 2 mps 759 mmHg 84%
    06:00 +13°C° 0 mm 2 mps 759 mmHg 84%
    07:00 +14°C° 0 mm 2 mps 759 mmHg 82%
    08:00 +14°C° 0 mm 2 mps 760 mmHg 79%
    09:00 +15°C° 0 mm 2 mps 760 mmHg 76%
    10:00 +15°C° 0 mm 2 mps 760 mmHg 70%
    11:00 +16°C° 0 mm 2 mps 760 mmHg 65%
    12:00 +17°C° 0 mm 2 mps 760 mmHg 59%
    13:00 +18°C° 0 mm 1 mps 759 mmHg 58%
    14:00 +18°C° 0 mm 1 mps 759 mmHg 57%
    15:00 +18°C° 0 mm 1 mps 759 mmHg 55%
    16:00 +15°C° 0 mm 1 mps 759 mmHg 61%
    17:00 +14°C° 0 mm 1 mps 759 mmHg 67%
    18:00 +13°C° 0 mm 1 mps 759 mmHg 72%
    19:00 +12°C° 0 mm 1 mps 760 mmHg 74%
    20:00 +12°C° 0 mm 2 mps 760 mmHg 76%
    21:00 +10°C° 0 mm 2 mps 760 mmHg 78%
    22:00 +10°C° 0 mm 3 mps 760 mmHg 78%
    23:00 +10°C° 0 mm 3 mps 759 mmHg 79%

    26 July, Thursday

    Time Temperature Precipitation Wind Pressure Humidity
    00:00 +10°C° 0 mm 3 mps 759 mmHg 80%
    01:00 +10°C° 0 mm 4 mps 758 mmHg 81%
    02:00 +10°C° 0 mm 4 mps 758 mmHg 82%
    03:00 +10°C° 0 mm 4 mps 757 mmHg 83%
    04:00 +10°C° 0 mm 4 mps 757 mmHg 83%
    05:00 +10°C° 0 mm 5 mps 757 mmHg 82%
    06:00 +10°C° 0 mm 5 mps 756 mmHg 82%
    07:00 +11°C° 0 mm 6 mps 756 mmHg 75%
    08:00 +13°C° 0 mm 6 mps 755 mmHg 69%
    09:00 +14°C° 0 mm 6 mps 755 mmHg 63%
    10:00 +15°C° 0.1 mm 7 mps 754 mmHg 61%
    11:00 +16°C° 0.1 mm 7 mps 753 mmHg 60%
    12:00 +16°C° 0.1 mm 7 mps 752 mmHg 58%
    13:00 +16°C° 0.2 mm 7 mps 751 mmHg 58%
    14:00 +17°C° 0.2 mm 6 mps 751 mmHg 57%
    15:00 +17°C° 0.2 mm 5 mps 750 mmHg 57%
    16:00 +16°C° 1.3 mm 6 mps 750 mmHg 65%
    17:00 +15°C° 1.3 mm 6 mps 750 mmHg 73%
    18:00 +13°C° 1.3 mm 6 mps 749 mmHg 81%
    19:00 +13°C° 0.6 mm 6 mps 749 mmHg 81%
    20:00 +13°C° 0.6 mm 6 mps 749 mmHg 81%
    21:00 +13°C° 0.6 mm 6 mps 749 mmHg 81%
    22:00 +11°C° 1.5 mm 6 mps 748 mmHg 82%
    23:00 +12°C° 1.5 mm 5 mps 748 mmHg 83%

    27 July, Friday

    Time Temperature Precipitation Wind Pressure Humidity
    00:00 +12°C° 1.5 mm 5 mps 748 mmHg 85%
    01:00 +10°C° 0.4 mm 5 mps 747 mmHg 84%
    02:00 +10°C° 0.4 mm 5 mps 747 mmHg 84%
    03:00 +10°C° 0.4 mm 5 mps 746 mmHg 83%
    04:00 +10°C° 0.6 mm 5 mps 746 mmHg 86%
    05:00 +9°C° 0.6 mm 5 mps 746 mmHg 88%
    06:00 +9°C° 0.6 mm 5 mps 746 mmHg 90%
    07:00 +10°C° 0.9 mm 4 mps 746 mmHg 90%
    08:00 +11°C° 0.9 mm 4 mps 746 mmHg 89%
    09:00 +11°C° 0.9 mm 3 mps 746 mmHg 89%
    10:00 +12°C° 0.2 mm 4 mps 746 mmHg 84%
    11:00 +13°C° 0.2 mm 4 mps 746 mmHg 80%
    12:00 +14°C° 0.2 mm 4 mps 746 mmHg 76%
    13:00 +14°C° 0 mm 5 mps 746 mmHg 74%
    14:00 +15°C° 0 mm 5 mps 747 mmHg 73%
    15:00 +15°C° 0 mm 5 mps 747 mmHg 71%
    16:00 +14°C° 0 mm 5 mps 748 mmHg 75%
    17:00 +13°C° 0 mm 4 mps 748 mmHg 80%
    18:00 +12°C° 0 mm 4 mps 749 mmHg 84%
    19:00 +12°C° 0.1 mm 4 mps 750 mmHg 85%
    20:00 +12°C° 0.1 mm 5 mps 750 mmHg 87%
    21:00 +12°C° 0.1 mm 5 mps 751 mmHg 89%
    22:00 +12°C° 0 mm 5 mps 751 mmHg 89%
    23:00 +12°C° 0 mm 5 mps 751 mmHg 90%

    28 July, Saturday

    Time Temperature Precipitation Wind Pressure Humidity
    00:00 +12°C° 0 mm 5 mps 752 mmHg 90%
    01:00 +12°C° 0.1 mm 4 mps 752 mmHg 89%
    02:00 +12°C° 0.1 mm 4 mps 752 mmHg 89%
    03:00 +12°C° 0.1 mm 4 mps 752 mmHg 89%
    04:00 +12°C° 0.1 mm 4 mps 752 mmHg 89%
    05:00 +12°C° 0.1 mm 4 mps 753 mmHg 90%
    06:00 +12°C° 0.1 mm 4 mps 753 mmHg 90%
    07:00 +13°C° 0.1 mm 4 mps 753 mmHg 88%
    08:00 +13°C° 0.1 mm 4 mps 754 mmHg 85%
    09:00 +14°C° 0.1 mm 4 mps 754 mmHg 83%
    10:00 +14°C° 0.2 mm 4 mps 754 mmHg 80%
    11:00 +15°C° 0.2 mm 4 mps 753 mmHg 77%
    12:00 +15°C° 0.2 mm 4 mps 753 mmHg 74%
    13:00 +15°C° 0.1 mm 4 mps 753 mmHg 72%
    14:00 +15°C° 0.1 mm 4 mps 753 mmHg 70%
    15:00 +15°C° 0.1 mm 4 mps 752 mmHg 67%
    16:00 +14°C° 0.2 mm 4 mps 753 mmHg 73%
    17:00 +13°C° 0.2 mm 4 mps 753 mmHg 78%
    18:00 +12°C° 0.2 mm 3 mps 753 mmHg 83%
    19:00 +12°C° 0.4 mm 4 mps 753 mmHg 85%
    20:00 +12°C° 0.4 mm 4 mps 753 mmHg 86%
    21:00 +12°C° 0.4 mm 4 mps 753 mmHg 87%
    22:00 +12°C° 0.7 mm 4 mps 753 mmHg 87%
    23:00 +12°C° 0.7 mm 4 mps 753 mmHg 88%
    Show more